• în Republica Moldova
  • Lista ţărilor
  • Pe 7 zile
  • Temperatura apei
  • Hartă satelitară
  • Meteo pe hartă
  • Widget-uri
  • user-avatar
    Intrare

    Meteo pe oră la Sankt Polten

    Astăzi, 16 Ianuarie, Luni

    Timp Temperatura Precipitaţii Vânt Presiune Umiditate
    00:00 -8°C° 0,1 mm 2 m/s 738 mmHg 97%
    01:00 -8°C° 0 mm 1 m/s 738 mmHg 97%
    02:00 -9°C° 0 mm 1 m/s 737 mmHg 97%
    03:00 -10°C° 0 mm 1 m/s 737 mmHg 97%
    04:00 -10°C° 0 mm 1 m/s 737 mmHg 97%
    05:00 -10°C° 0 mm 1 m/s 737 mmHg 97%
    06:00 -10°C° 0 mm 1 m/s 737 mmHg 97%
    07:00 -10°C° 0 mm 1 m/s 738 mmHg 97%
    08:00 -8°C° 0 mm 1 m/s 738 mmHg 96%
    09:00 -6°C° 0 mm 1 m/s 738 mmHg 95%
    10:00 -3°C° 0 mm 1 m/s 739 mmHg 94%
    11:00 -2°C° 0 mm 1 m/s 739 mmHg 93%
    12:00 -2°C° 0 mm 1 m/s 739 mmHg 92%
    13:00 -1°C° 0 mm 1 m/s 738 mmHg 92%
    14:00 -2°C° 0 mm 1 m/s 738 mmHg 93%
    15:00 -4°C° 0 mm 1 m/s 738 mmHg 95%
    16:00 -6°C° 0 mm 1 m/s 738 mmHg 96%
    17:00 -7°C° 0 mm 1 m/s 739 mmHg 97%
    18:00 -8°C° 0 mm 1 m/s 739 mmHg 97%
    19:00 -9°C° 0 mm 1 m/s 739 mmHg 98%
    20:00 -8°C° 0 mm 1 m/s 739 mmHg 98%
    21:00 -8°C° 0 mm 1 m/s 740 mmHg 98%
    22:00 -7°C° 0 mm 1 m/s 740 mmHg 98%
    23:00 -7°C° 0 mm 1 m/s 741 mmHg 97%

    Mâine, 17 Ianuarie, Marţi

    Timp Temperatura Precipitaţii Vânt Presiune Umiditate
    00:00 -8°C° 0 mm 1 m/s 741 mmHg 97%
    01:00 -8°C° 0 mm 1 m/s 741 mmHg 97%
    02:00 -7°C° 0 mm 1 m/s 742 mmHg 97%
    03:00 -8°C° 0 mm 2 m/s 742 mmHg 97%
    04:00 -8°C° 0 mm 2 m/s 742 mmHg 97%
    05:00 -8°C° 0 mm 2 m/s 742 mmHg 97%
    06:00 -8°C° 0 mm 2 m/s 743 mmHg 97%
    07:00 -8°C° 0 mm 2 m/s 743 mmHg 97%
    08:00 -7°C° 0,1 mm 2 m/s 743 mmHg 96%
    09:00 -6°C° 0,1 mm 2 m/s 744 mmHg 95%
    10:00 -5°C° 0,1 mm 2 m/s 744 mmHg 94%
    11:00 -6°C° 0 mm 3 m/s 744 mmHg 94%
    12:00 -6°C° 0 mm 3 m/s 744 mmHg 93%
    13:00 -5°C° 0 mm 3 m/s 745 mmHg 92%
    14:00 -5°C° 0,1 mm 3 m/s 745 mmHg 93%
    15:00 -5°C° 0,1 mm 2 m/s 745 mmHg 94%
    16:00 -5°C° 0,1 mm 2 m/s 745 mmHg 95%
    17:00 -5°C° 0,1 mm 2 m/s 745 mmHg 95%
    18:00 -6°C° 0,1 mm 2 m/s 746 mmHg 95%
    19:00 -6°C° 0,1 mm 2 m/s 746 mmHg 95%
    20:00 -7°C° 0 mm 2 m/s 746 mmHg 96%
    21:00 -7°C° 0 mm 2 m/s 747 mmHg 96%
    22:00 -8°C° 0 mm 2 m/s 747 mmHg 96%
    23:00 -8°C° 0 mm 2 m/s 747 mmHg 96%

    Poimâine, 18 Ianuarie, Miercuri

    Timp Temperatura Precipitaţii Vânt Presiune Umiditate
    00:00 -8°C° 0 mm 2 m/s 747 mmHg 97%
    01:00 -9°C° 0 mm 2 m/s 748 mmHg 97%
    02:00 -9°C° 0 mm 2 m/s 748 mmHg 97%
    03:00 -9°C° 0 mm 2 m/s 748 mmHg 96%
    04:00 -9°C° 0 mm 2 m/s 748 mmHg 96%
    05:00 -10°C° 0 mm 2 m/s 748 mmHg 96%
    06:00 -10°C° 0 mm 2 m/s 748 mmHg 96%
    07:00 -12°C° 0 mm 2 m/s 748 mmHg 96%
    08:00 -9°C° 0 mm 2 m/s 748 mmHg 95%
    09:00 -8°C° 0 mm 2 m/s 749 mmHg 95%
    10:00 -7°C° 0 mm 2 m/s 749 mmHg 94%
    11:00 -6°C° 0 mm 2 m/s 749 mmHg 93%
    12:00 -6°C° 0 mm 2 m/s 749 mmHg 93%
    13:00 -5°C° 0 mm 2 m/s 749 mmHg 92%
    14:00 -6°C° 0 mm 2 m/s 749 mmHg 93%
    15:00 -6°C° 0 mm 2 m/s 749 mmHg 94%
    16:00 -6°C° 0 mm 2 m/s 749 mmHg 95%
    17:00 -7°C° 0 mm 2 m/s 749 mmHg 95%
    18:00 -8°C° 0 mm 2 m/s 749 mmHg 96%
    19:00 -9°C° 0 mm 2 m/s 749 mmHg 97%
    20:00 -9°C° 0 mm 2 m/s 749 mmHg 97%
    21:00 -10°C° 0 mm 2 m/s 749 mmHg 97%
    22:00 -9°C° 0 mm 1 m/s 750 mmHg 97%
    23:00 -10°C° 0 mm 1 m/s 749 mmHg 97%

    19 Ianuarie, Joi

    Timp Temperatura Precipitaţii Vânt Presiune Umiditate
    00:00 -11°C° 0 mm 1 m/s 749 mmHg 97%
    01:00 -12°C° 0 mm 1 m/s 749 mmHg 97%
    02:00 -12°C° 0 mm 1 m/s 749 mmHg 97%
    03:00 -12°C° 0 mm 1 m/s 749 mmHg 97%
    04:00 -12°C° 0 mm 1 m/s 749 mmHg 97%
    05:00 -12°C° 0 mm 1 m/s 749 mmHg 97%
    06:00 -12°C° 0 mm 1 m/s 749 mmHg 97%
    07:00 -12°C° 0 mm 1 m/s 749 mmHg 97%
    08:00 -10°C° 0 mm 1 m/s 749 mmHg 96%
    09:00 -8°C° 0 mm 1 m/s 749 mmHg 95%
    10:00 -6°C° 0 mm 1 m/s 750 mmHg 94%
    11:00 -4°C° 0 mm 1 m/s 749 mmHg 94%
    12:00 -3°C° 0 mm 1 m/s 749 mmHg 93%
    13:00 -2°C° 0 mm 1 m/s 749 mmHg 92%
    14:00 -3°C° 0 mm 1 m/s 749 mmHg 94%
    15:00 -4°C° 0 mm 1 m/s 748 mmHg 95%
    16:00 -7°C° 0 mm 2 m/s 748 mmHg 96%
    17:00 -8°C° 0 mm 2 m/s 748 mmHg 96%
    18:00 -10°C° 0 mm 2 m/s 748 mmHg 97%
    19:00 -12°C° 0 mm 2 m/s 748 mmHg 97%
    20:00 -12°C° 0 mm 2 m/s 748 mmHg 97%
    21:00 -12°C° 0 mm 2 m/s 748 mmHg 96%
    22:00 -12°C° 0 mm 2 m/s 748 mmHg 96%
    23:00 -12°C° 0 mm 2 m/s 748 mmHg 96%

    20 Ianuarie, Vineri

    Timp Temperatura Precipitaţii Vânt Presiune Umiditate
    00:00 -12°C° 0 mm 2 m/s 748 mmHg 95%
    01:00 -12°C° 0 mm 2 m/s 748 mmHg 95%
    02:00 -12°C° 0 mm 2 m/s 748 mmHg 95%
    03:00 -12°C° 0 mm 2 m/s 747 mmHg 95%
    04:00 -10°C° 0 mm 1 m/s 747 mmHg 95%
    05:00 -10°C° 0 mm 1 m/s 747 mmHg 95%
    06:00 -10°C° 0 mm 1 m/s 747 mmHg 95%
    07:00 -10°C° 0 mm 1 m/s 747 mmHg 95%
    08:00 -9°C° 0 mm 1 m/s 747 mmHg 94%
    09:00 -7°C° 0 mm 1 m/s 747 mmHg 94%
    10:00 -6°C° 0 mm 1 m/s 748 mmHg 93%
    11:00 -5°C° 0 mm 2 m/s 747 mmHg 93%
    12:00 -4°C° 0 mm 2 m/s 747 mmHg 92%
    13:00 -3°C° 0 mm 2 m/s 747 mmHg 92%
    14:00 -4°C° 0 mm 2 m/s 746 mmHg 93%
    15:00 -5°C° 0 mm 2 m/s 746 mmHg 94%
    16:00 -6°C° 0 mm 2 m/s 746 mmHg 95%
    17:00 -7°C° 0 mm 2 m/s 746 mmHg 96%
    18:00 -8°C° 0 mm 2 m/s 746 mmHg 96%
    19:00 -9°C° 0 mm 2 m/s 746 mmHg 97%
    20:00 -9°C° 0 mm 2 m/s 746 mmHg 97%
    21:00 -9°C° 0 mm 2 m/s 746 mmHg 97%
    22:00 -9°C° 0 mm 2 m/s 747 mmHg 97%
    23:00 -8°C° 0 mm 1 m/s 746 mmHg 97%

    21 Ianuarie, Sâmbătă

    Timp Temperatura Precipitaţii Vânt Presiune Umiditate
    00:00 -9°C° 0 mm 1 m/s 746 mmHg 97%
    01:00 -9°C° 0 mm 1 m/s 746 mmHg 97%
    02:00 -9°C° 0 mm 1 m/s 746 mmHg 97%
    03:00 -10°C° 0 mm 2 m/s 746 mmHg 97%
    04:00 -10°C° 0 mm 2 m/s 746 mmHg 98%
    05:00 -10°C° 0 mm 2 m/s 745 mmHg 98%
    06:00 -10°C° 0 mm 2 m/s 745 mmHg 98%
    07:00 -10°C° 0 mm 2 m/s 745 mmHg 98%
    08:00 -9°C° 0 mm 2 m/s 745 mmHg 97%
    09:00 -7°C° 0 mm 2 m/s 746 mmHg 96%
    10:00 -6°C° 0 mm 2 m/s 746 mmHg 96%
    11:00 -5°C° 0 mm 2 m/s 745 mmHg 95%
    12:00 -4°C° 0 mm 2 m/s 745 mmHg 94%
    13:00 -3°C° 0 mm 2 m/s 744 mmHg 94%
    14:00 -3°C° 0 mm 2 m/s 744 mmHg 94%
    15:00 -4°C° 0 mm 2 m/s 744 mmHg 95%
    16:00 -5°C° 0 mm 2 m/s 743 mmHg 95%
    17:00 -5°C° 0 mm 2 m/s 743 mmHg 96%
    18:00 -6°C° 0 mm 2 m/s 743 mmHg 96%
    19:00 -8°C° 0 mm 3 m/s 743 mmHg 97%
    20:00 -7°C° 0 mm 2 m/s 743 mmHg 97%
    21:00 -8°C° 0 mm 2 m/s 743 mmHg 97%
    22:00 -8°C° 0 mm 2 m/s 743 mmHg 98%
    23:00 -8°C° 0 mm 2 m/s 743 mmHg 98%
    Arată mai mult